Renton, WA
on Thursday, November 29, 2012

Thursday
Previous Day Next Day
Daily Summary
 ActualAverage (KSEA)Record (KSEA)
Temperature
Mean Temperature °F / °C 42°F / 6°C  
Max Temperature 57°F / 14°C 48°F / 9°C 59°F / 15°C (1999)
Min Temperature 48°F / 9°C 37°F / 3°C 18°F / -7°C (2006)
Degree Days
Heating Degree Days 12 23  
Month to date heating degree days 564  
Since 1 July heating degree days 1161  
Cooling Degree Days 0 0  
Month to date cooling degree days 0  
Year to date cooling degree days 189  
Growing Degree Days2 (Base °F / °C )  
Moisture
Dew Point 42°F / 6°C   
Average Humidity 66    
Maximum Humidity 86    
Minimum Humidity 51    
Precipitation
Precipitation 0.07 in / 1.78 cm 0.23 in / 5.84 cm 1.08 in / 2.74 cm (1964)
Month to date precipitation 6.35  
Year to date precipitation 31.92  
Snow
Snow 0.00 in / 0.00 cm in / cm 1.00 in / 2.54 cm (2006)
Month to date snowfall  
Since 1 July snowfall  
Snow Depth in / cm   
Wind
Wind Speed 4 mph / 6 km/h   
Max Wind Speed 13 mph / 21 km/h   
Max Gust Speed 24 mph / 39 km/h   
Visibility 10 miles / 16 kilometers   
Events Rain   

Key: T is trace of precipitation, MM is missing value
Source: NWS Daily Summary
Time(PST)TemperatureDew PointHumidity Pressure Visibility Wind DirectionWind SpeedGust SpeedPrecipitationEvents Conditions
12:53 AM 48.9°F / 9.4°C 39.0°F / 3.9°C 69% 29.71 in / 1006.1 hPa 10.0 miles / 16.1 kilometers SSE 4.6 mph / 7.4 km/h - N/A   Mostly Cloudy
1:53 AM 50.0°F / 10.0°C 39.0°F / 3.9°C 66% 29.69 in / 1005.4 hPa 10.0 miles / 16.1 kilometers SSE 3.5 mph / 5.6 km/h - N/A   Mostly Cloudy
2:53 AM 50.0°F / 10.0°C 39.0°F / 3.9°C 66% 29.68 in / 1004.9 hPa 10.0 miles / 16.1 kilometers South 4.6 mph / 7.4 km/h - N/A   Overcast
3:53 AM 52.0°F / 11.1°C 37.9°F / 3.3°C 59% 29.64 in / 1003.5 hPa 10.0 miles / 16.1 kilometers SSE 5.8 mph / 9.3 km/h - N/A   Mostly Cloudy
4:53 AM 53.1°F / 11.7°C 37.9°F / 3.3°C 57% 29.61 in / 1002.5 hPa 10.0 miles / 16.1 kilometers Calm Calm - 0.00 in / 0.0 cm Rain Light Rain
5:53 AM 55.9°F / 13.3°C 37.9°F / 3.3°C 51% 29.57 in / 1001.3 hPa 10.0 miles / 16.1 kilometers ESE 11.5 mph / 18.5 km/h 20.7 mph / 33.3 km/h 0.00 in / 0.0 cm   Overcast
6:53 AM 54.0°F / 12.2°C 41.0°F / 5.0°C 62% 29.55 in / 1000.4 hPa 10.0 miles / 16.1 kilometers ESE 12.7 mph / 20.4 km/h 24.2 mph / 38.9 km/h 0.01 in / 0.3 cm Rain Light Rain
7:53 AM 55.4°F / 13.0°C 41.0°F / 5.0°C 58% 29.52 in / 999.5 hPa 10.0 miles / 16.1 kilometers SSE 6.9 mph / 11.1 km/h 18.4 mph / 29.6 km/h N/A Rain Light Rain
8:53 AM 54.0°F / 12.2°C 42.1°F / 5.6°C 64% 29.57 in / 1001.3 hPa 10.0 miles / 16.1 kilometers South 5.8 mph / 9.3 km/h - 0.00 in / 0.0 cm Rain Light Rain
9:53 AM 52.0°F / 11.1°C 44.1°F / 6.7°C 74% 29.62 in / 1003.1 hPa 8.0 miles / 12.9 kilometers Calm Calm - 0.02 in / 0.5 cm Rain Light Rain
10:53 AM 51.1°F / 10.6°C 46.9°F / 8.3°C 86% 29.62 in / 1003.1 hPa 10.0 miles / 16.1 kilometers ESE 3.5 mph / 5.6 km/h - 0.02 in / 0.5 cm Rain Light Rain
11:53 AM 53.1°F / 11.7°C 46.9°F / 8.3°C 80% 29.62 in / 1003.0 hPa 10.0 miles / 16.1 kilometers East 5.8 mph / 9.3 km/h - 0.01 in / 0.3 cm   Overcast
12:53 PM 52.0°F / 11.1°C 45.0°F / 7.2°C 77% 29.61 in / 1002.7 hPa 8.0 miles / 12.9 kilometers Calm Calm - 0.01 in / 0.3 cm Rain Light Rain
1:53 PM 54.0°F / 12.2°C 46.0°F / 7.8°C 75% 29.58 in / 1001.7 hPa 10.0 miles / 16.1 kilometers Calm Calm - 0.00 in / 0.0 cm   Overcast
2:53 PM 57.9°F / 14.4°C 43.0°F / 6.1°C 58% 29.59 in / 1001.8 hPa 10.0 miles / 16.1 kilometers SSE 5.8 mph / 9.3 km/h - N/A   Overcast
3:53 PM 57.0°F / 13.9°C 43.0°F / 6.1°C 59% 29.57 in / 1001.4 hPa 10.0 miles / 16.1 kilometers Calm Calm - N/A   Mostly Cloudy
4:53 PM 53.1°F / 11.7°C 43.0°F / 6.1°C 69% 29.57 in / 1001.2 hPa 10.0 miles / 16.1 kilometers Calm Calm - N/A   Overcast
5:53 PM 54.0°F / 12.2°C 41.0°F / 5.0°C 62% 29.55 in / 1000.7 hPa 10.0 miles / 16.1 kilometers Calm Calm - N/A   Overcast
6:53 PM 53.1°F / 11.7°C 41.0°F / 5.0°C 64% 29.55 in / 1000.4 hPa 10.0 miles / 16.1 kilometers East 8.1 mph / 13.0 km/h - 0.00 in / 0.0 cm Rain Light Rain
7:53 PM 52.0°F / 11.1°C 39.9°F / 4.4°C 63% 29.52 in / 999.6 hPa 10.0 miles / 16.1 kilometers SSW 4.6 mph / 7.4 km/h - 0.00 in / 0.0 cm   Overcast
8:53 PM 52.0°F / 11.1°C 41.0°F / 5.0°C 66% 29.52 in / 999.7 hPa 10.0 miles / 16.1 kilometers Calm Calm - N/A   Overcast
9:53 PM 51.1°F / 10.6°C 41.0°F / 5.0°C 68% 29.51 in / 999.3 hPa 10.0 miles / 16.1 kilometers Variable 3.5 mph / 5.6 km/h - 0.00 in / 0.0 cm Rain Light Rain
10:53 PM 50.0°F / 10.0°C 39.9°F / 4.4°C 68% 29.48 in / 998.1 hPa 10.0 miles / 16.1 kilometers South 3.5 mph / 5.6 km/h - 0.00 in / 0.0 cm   Clear
11:53 PM 50.0°F / 10.0°C 41.0°F / 5.0°C 71% 29.46 in / 997.6 hPa 10.0 miles / 16.1 kilometers South 4.6 mph / 7.4 km/h - N/A   Overcast
Moon Phase
Nov. 29 Dec. 06 Dec. 13 Dec. 20 Dec. 28
Sunrise:07:33 AM (PST) Moon Rise:05:27 PM (PST)11/29
Sunset:04:20 PM (PST) Moon Set:08:25 AM (PST)11/29

Copyright © 2014 The Weather Underground, Inc.